[Iaude] MPEC T112: 2016 TX19 [a=2.15,e=0.47,i=5.4,H=23.8]

mpec at si.edu mpec at si.edu
Tue Oct 11 10:33:46 EDT 2016


M.P.E.C. 2016-T112                               Issued 2016 Oct. 11, 14:29 UT
 
     The Minor Planet Electronic Circulars contain information on unusual
         minor planets and routine data on comets.  They are published
    on behalf of Division F of the International Astronomical Union by the
          Minor Planet Center, Smithsonian Astrophysical Observatory,
                          Cambridge, MA 02138, U.S.A.

             Prepared using the Tamkin Foundation Computer Network

                              MPC at CFA.HARVARD.EDU
            URL http://www.minorplanetcenter.net/    ISSN 1523-6714


                                   2016 TX19
 
Observations:
     K16T19X* C2016 10 09.45008 01 07 20.672-16 09 41.43         21.1 wLET112F51
     K16T19X  C2016 10 09.46167 01 07 21.571-16 09 21.30         21.2 wLET112F51
     K16T19X  C2016 10 09.47326 01 07 22.484-16 09 00.60         21.6 wLET112F51
     K16T19X  C2016 10 09.48484 01 07 23.390-16 08 40.28         21.3 wLET112F51
     K16T19X |C2016 10 10.27349 01 08 40.84 -15 44 34.2          21.4 VuET112807
     K16T19X |C2016 10 10.27924 01 08 41.31 -15 44 23.6          21.2 VuET112807
     K16T19X KC2016 10 10.28029 01 08 43.43 -15 45 12.5          20.4 RoET112291
     K16T19X KC2016 10 10.28479 01 08 43.82 -15 45 04.7          20.2 RoET112291
     K16T19X |C2016 10 10.28493 01 08 41.78 -15 44 13.0          21.3 VuET112807
     K16T19X KC2016 10 10.28929 01 08 44.16 -15 44 56.6          20.3 RoET112291
     K16T19X _C2016 10 10.37373101 08 53.357-15 42 14.22         21.2 RUET112568
     K16T19X _C2016 10 10.37499701 08 53.459-15 42 11.93         21.5 RUET112568
     K16T19X _C2016 10 10.37626401 08 53.560-15 42 09.63         21.1 RUET112568
     K16T19X  C2016 10 11.25624 01 10 21.69 -15 14 54.6          20.6 RoET112926
     K16T19X  C2016 10 11.26530 01 10 22.35 -15 14 36.9          21.2 RoET112926
     K16T19X  C2016 10 11.27436 01 10 23.14 -15 14 20.3          20.9 RoET112926
 
Observer details:
291 LPL/Spacewatch II.  Observer R. S. McMillan.  1.8-m f/2.7 reflector + CCD.
568 Mauna Kea.  Observers R. J. Wainscoat, R. Weryk, C. Wipper.  Measurers
    M. Micheli, R. Weryk.  3.6-m Canada-France-Hawaii Telescope + CCD.
807 Cerro Tololo.  Observers T. Linder, R. Holmes.  0.61-m f/6.5 astrograph
    + CCD.
926 Tenagra II Observatory.  Observers M. Schwartz, P. R. Holvorcem.  Measurer
    M. Schwartz.  0.81-m f/7 Ritchey-Chretien + CCD.
F51 Pan-STARRS 1, Haleakala.  Observers B. Gibson, T. Goggia, S. Kahale,
    A. Schultz, M. Willman.  Measurers K. Chambers, S. Chastel, L. Denneau,
    H. Flewelling, M. Huber, E. Lilly, E. Magnier, R. Wainscoat, C. Waters,
    R. Weryk.  1.8-m Ritchey-Chretien + CCD.
 
Orbital elements:
2016 TX19                                                Earth MOID = 0.1499 AU
Epoch 2016 July 31.0 TT = JDT 2457600.5                 MPC
M 331.64282              (2000.0)            P               Q
n   0.31165724     Peri.  343.62036     +0.81771211     -0.57091995
a   2.1545235      Node    51.42600     +0.53810887     +0.71284032
e   0.4701525      Incl.    5.39207     +0.20441564     +0.40731939
P   3.16           H   23.8           G   0.15           U   7
Residuals in seconds of arc
161009 F51  0.0   0.0     161010 291  0.2-  0.3+    161010 568  0.0   0.0
161009 F51  0.0   0.2-    161010 291  0.1+  0.0     161011 926  0.7+  0.2-
161009 F51  0.1+  0.1+    161010 807  0.0   0.1+    161011 926  0.6-  0.3+
161009 F51  0.0   0.0     161010 291  0.2-  0.1-    161011 926  0.0   0.2-
161010 807  0.1+  0.1+    161010 568  0.0   0.1-
161010 807  0.0   0.0     161010 568  0.0   0.1-

Ephemeris:
2016 TX19                a,e,i = 2.15, 0.47, 5                   q = 1.1416
Date    TT    R. A. (2000) Decl.     Delta      r     Elong.  Phase     V
2016 09 11    00 28 35.1 -21 31 18   0.2711  1.2589   155.8    19.1    22.4
...
2016 09 26    00 47 34.7 -20 29 02   0.2126  1.2006   156.5    19.4    21.8
...
2016 10 04    00 58 51.0 -18 24 36   0.1893  1.1767   156.8    19.6    21.5
...
2016 10 10    01 08 15.1 -15 53 03   0.1755  1.1626   157.4    19.2    21.3
2016 10 11    01 09 54.9 -15 22 25   0.1735  1.1605   157.6    19.1    21.3
2016 10 12    01 11 36.4 -14 50 14   0.1716  1.1586   157.8    19.0    21.3
...
2016 10 18    01 22 21.2 -11 04 09   0.1621  1.1492   159.2    17.9    21.1
...
2016 10 26    01 38 06.5 -04 42 31   0.1550  1.1424   161.8    15.7    20.9
...
2016 11 10    02 10 50.8 +09 14 05   0.1622  1.1480   165.4    12.6    20.9

A. U. Tomatic                (C) Copyright 2016 MPC           M.P.E.C. 2016-T112




More information about the Iaude mailing list